Location: Atbuku
(36.4936°N, 30.4362°E)
Time: 09:10:35
(UTC+00:00)

IRS-P3 - Pass Details

Date: 16 March 2026
Orbit: 810 x 816 km, 99.0° (Epoch: 20 April)

Event Time Altitude Azimuth Distance (km) Brightness Sun altitude
Rises 16:22:45 0° 170° (S) 3,326 7.2 -4.1°
Reaches altitude 10° 16:25:05 10° 172° (S) 2,398 6.5 -4.6°
Maximum altitude 16:30:23 74° 257° (WSW) 849 4.5 -5.7°
Drops below altitude 10° 16:35:44 10° 343° (NNW) 2,412 6.9 -6.7°
Sets 16:38:05 0° 345° (NNW) 3,347 7.6 -7.2°
